Guadalajara Don Miguel, Mexico

8:04 AM CDT on June 28, 2017 (GMT -0500)
Guadalajara Don Miguel

Weather History for MMGL - August, 2013

Change the Weather History Date:

Monday, August 19, 2013

  Actual Average Record
Temperature  
Mean Temperature 70 °F -  
Max Temperature 80 °F 76 °F 84 °F (2001)
Min Temperature 59 °F 58 °F 57 °F (2002)
Cooling Degree Days 4    
Growing Degree Days 20 (Base 50)    
Moisture  
Dew Point 56 °F    
Average Humidity 61    
Maximum Humidity 94    
Minimum Humidity 34    
Precipitation  
Precipitation 0.00 in - - ()
Sea Level Pressure  
Sea Level Pressure 30.03 in    
Wind  
Wind Speed 2 mph ()    
Max Wind Speed 13 mph    
Max Gust Speed -    
Visibility 9.3 miles    
Events      
Averages and records for this station are not official NWS values.
T = Trace of Precipitation, MM = Missing Value Source: Averaged Metar Reports

Daily Weather History Graph

Daily Weather History Graph

Search for Another Location

Airport or City:

Trip Planner

Search our weather history database for the weather conditions in past years. The results will help you decide how hot, cold, wet, or windy it might be!

Date:

Astronomy

Aug. 19, 2013 Rise Set
Actual Time 7:33 AM CDT 8:19 PM CDT
Civil Twilight 7:11 AM CDT 8:42 PM CDT
Nautical Twilight 6:44 AM CDT 9:08 PM CDT
Astronomical Twilight 6:17 AM CDT 9:36 PM CDT
Moon 7:12 PM CDT (8/19) 6:00 AM CDT (8/19)
Length of Visible Light 13h 30m
Length of Day
12h 45m
Waxing Gibbous, 97% of the Moon is Illuminated
Aug 19
Waxing Gibbous
Aug 20
Full
Aug 28
Last Quarter
Sep 5
New
Sep 12
First Quarter

Hourly Weather History & Observations

Time (CDT) Temp. Heat Index Dew Point Humidity Pressure Visibility Wind Dir Wind Speed Gust Speed Precip Events Conditions
12:00 AM 68.0 °F - 59.0 °F 73% 30.17 in 10.0 mi Calm Calm - N/A   Partly Cloudy
12:51 AM 68.0 °F - 59.0 °F 73% 29.83 in 10.0 mi Calm Calm - N/A   Mostly Cloudy
1:48 AM 66.2 °F - 59.0 °F 78% 30.19 in 10.0 mi South 5.8 mph - N/A   Mostly Cloudy
2:55 AM 68.0 °F - 59.0 °F 73% 30.17 in 8.0 mi SSW 3.5 mph - N/A   Mostly Cloudy
3:55 AM 68.0 °F - 60.8 °F 78% 29.83 in 8.0 mi South 2.3 mph - N/A   Mostly Cloudy
4:48 AM 64.4 °F - 59.0 °F 83% 30.17 in 8.0 mi West 3.5 mph - N/A   Mostly Cloudy
5:48 AM 64.4 °F - 60.8 °F 88% 30.15 in 10.0 mi Calm Calm - N/A   Scattered Clouds
6:53 AM 62.6 °F - 57.2 °F 82% 29.82 in 10.0 mi Calm Calm - N/A   Scattered Clouds
7:51 AM 59.0 °F - 57.2 °F 94% 30.18 in 10.0 mi Calm Calm - N/A   Partly Cloudy
8:47 AM 66.2 °F - 57.2 °F 73% 30.19 in 7.0 mi Calm Calm - N/A   Clear
9:45 AM 69.8 °F - 57.2 °F 64% 29.87 in 7.0 mi ENE 5.8 mph - N/A   Clear
10:47 AM 73.4 °F - 53.6 °F 50% 30.21 in 7.0 mi Calm Calm - N/A   Clear
11:50 AM 75.2 °F - 53.6 °F 47% 30.20 in 8.0 mi ESE 5.8 mph - N/A   Clear
12:47 PM 77.0 °F - 53.6 °F 44% 29.85 in 10.0 mi Calm Calm - N/A   Partly Cloudy
1:48 PM 78.8 °F - 50.0 °F 36% 30.17 in 10.0 mi Calm Calm - N/A   Mostly Cloudy
2:51 PM 78.8 °F - 51.8 °F 39% 30.14 in 10.0 mi SE 8.1 mph - N/A   Scattered Clouds
3:49 PM 78.8 °F - 51.8 °F 39% 29.76 in 10.0 mi ENE 12.7 mph - N/A   Mostly Cloudy
4:52 PM 80.6 °F 80.3 °F 53.6 °F 39% 30.09 in 10.0 mi SE 6.9 mph - N/A   Mostly Cloudy
5:50 PM 80.6 °F - 50.0 °F 34% 30.06 in 10.0 mi SE 5.8 mph - N/A   Scattered Clouds
6:53 PM 78.8 °F - 53.6 °F 42% 29.72 in 10.0 mi SE 10.4 mph - N/A   Partly Cloudy
7:53 PM 77.0 °F - 53.6 °F 44% 30.06 in 10.0 mi SSE 4.6 mph - N/A   Scattered Clouds
8:53 PM 73.4 °F - 55.4 °F 53% 30.06 in 10.0 mi South 3.5 mph - N/A   Scattered Clouds
9:48 PM 69.8 °F - 55.4 °F 60% 29.78 in 10.0 mi Calm Calm - N/A   Scattered Clouds
10:46 PM 64.4 °F - 57.2 °F 77% 30.09 in 10.0 mi Calm Calm - N/A   Scattered Clouds
11:50 PM 64.4 °F - 55.4 °F 73% 30.11 in 10.0 mi Calm Calm - N/A   Scattered Clouds